[[{"header":{"parameterUnit":"m.s-1","parameterCategory":1,"la1":30.2991,"la2":30.254,"lo1":-89.0895,"lo2":-89.0444,"dy":0.0017,"dx":0.0017,"nx":28,"ny":28,"refTime":"2025-03-24T03:00:00:Z","depth":0,"parameterNumber":2,"parameterNumberName":"U-component_of_WINDS"},"data":[0,0,0,0,0,0,0,0,0,0,0,0,0,0,0,0,0,0,0,0,0,0,0,0,0,0,0,0,0,0,0,0,0,0,0,0,0,0,0,0,0,0,0,0,0,0,0,0,0,0,0,0,0,0,0,0,0,0,-1.339,-1.3389,0,-1.3348,-1.3348,-1.3347,-1.3258,-1.3256,-1.3254,-1.3252,-1.3213,-1.3213,-1.3214,0,0,0,0,0,0,0,0,0,0,0,0,0,-1.3393,-1.3394,-1.339,-1.3389,-1.3389,-1.3348,-1.3348,-1.3347,-1.3258,-1.3256,-1.3253,-1.3251,-1.3212,-1.3213,-1.3214,0,0,0,0,0,0,0,0,0,0,0,0,0,-1.3376,-1.3394,-1.339,-1.3339,-1.3334,-1.3349,-1.3348,-1.3347,-1.3258,-1.3256,-1.3253,-1.325,-1.3212,-1.3213,-1.3214,-1.3275,0,0,-1.3217,-1.3217,0,0,0,0,0,0,0,0,-1.3377,-1.3376,-1.3347,-1.3343,-1.3337,-1.3305,-1.3334,-1.3323,-1.3259,-1.3287,-1.3252,-1.3249,-1.3246,-1.3244,-1.3242,-1.3273,-1.3272,-1.3217,-1.3218,-1.3218,-1.3218,0,0,0,0,0,0,0,-1.3378,-1.3377,-1.3373,-1.3347,-1.3341,-1.3319,-1.3314,-1.3332,-1.3283,-1.3285,-1.3278,-1.3274,-1.3243,-1.3242,-1.3241,-1.3271,-1.3217,-1.3218,-1.3219,-1.3219,-1.335,-1.3353,0,0,0,0,0,0,-1.3387,-1.3379,-1.3375,-1.3372,-1.3351,-1.3321,-1.3315,-1.3318,-1.3282,-1.3274,-1.3277,-1.327,-1.3241,-1.324,-1.3239,-1.3308,-1.3218,-1.3219,-1.322,-1.3347,-1.3351,-1.3354,0,0,0,0,0,0,-1.3387,-1.3387,-1.3376,-1.3374,-1.3371,-1.3324,-1.3328,-1.3319,-1.3318,-1.3276,-1.3267,-1.3284,-1.3239,-1.3238,-1.3267,-1.3305,-1.3219,-1.322,-1.3344,-1.3348,-1.3352,-1.3447,0,0,0,0,0,0,-1.3387,-1.3388,-1.341,-1.3375,-1.3371,-1.3404,-1.3331,-1.332,-1.3319,-1.3311,-1.3281,-1.3273,-1.3237,-1.3266,-1.3268,-1.3305,-1.3221,-1.334,-1.3346,-1.3351,-1.344,-1.3454,-1.3466,0,0,0,0,0,-1.3388,-1.3439,-1.3412,-1.3412,-1.3398,-1.3407,-1.3405,-1.3361,-1.3323,-1.3345,-1.3318,-1.3274,-1.3301,-1.3269,-1.3271,-1.3309,-1.3337,-1.3344,-1.3351,-1.3435,-1.3452,-1.3466,0,0,0,0,0,0,-1.3481,-1.3433,-1.3402,-1.3443,-1.343,-1.3392,-1.3418,-1.338,-1.3377,-1.3369,-1.3315,-1.331,-1.3346,-1.333,-1.3296,-1.3367,-1.3312,-1.3319,-1.3376,-1.3391,-1.3404,-1.3407,-1.3222,0,0,0,0,0,-1.3506,-1.3516,-1.3475,-1.3515,-1.3509,-1.3465,-1.3468,-1.3435,-1.3419,-1.3413,-1.3388,-1.3375,-1.338,-1.3385,-1.3387,-1.3437,-1.343,-1.3465,-1.3478,-1.3488,-1.3495,-1.3521,-1.3536,-1.3375,-1.3375,-1.3375,0,0,-1.3558,-1.3534,-1.3544,-1.3533,-1.3518,-1.3531,-1.3461,-1.3478,-1.3487,-1.3415,-1.3441,-1.3423,-1.3404,-1.3445,-1.3461,-1.3433,-1.3538,-1.3497,-1.3506,-1.3507,-1.3529,-1.3545,-1.3558,-1.338,-1.3379,-1.3378,0,0,-1.366,-1.3642,-1.3674,-1.3661,-1.3639,-1.3609,-1.3617,-1.3585,-1.3569,-1.3594,-1.3541,-1.3551,-1.3561,-1.3551,-1.3547,-1.3644,-1.3604,-1.3647,-1.3714,-1.374,-1.3752,-1.3763,-1.3799,-1.3812,-1.3654,-1.3654,-1.3654,0,-1.3728,-1.3744,-1.3695,-1.3715,-1.3712,-1.3647,-1.3679,-1.3669,-1.365,-1.365,-1.3618,-1.3629,-1.3612,-1.3649,-1.3673,-1.3671,-1.3679,-1.365,-1.3754,-1.3765,-1.3774,-1.3807,-1.3821,-1.3659,-1.3659,-1.3658,-1.3657,0,-1.3829,-1.3841,-1.387,-1.3852,-1.3852,-1.3878,-1.3833,-1.384,-1.3807,-1.3781,-1.3807,-1.3785,-1.3781,-1.3788,-1.3756,-1.382,-1.3803,-1.3764,-1.3708,-1.3796,-1.3826,-1.3838,-1.3667,-1.3665,-1.3663,-1.3662,0,0,-1.3989,-1.3943,-1.3954,-1.3946,-1.3917,-1.3926,-1.3949,-1.3945,-1.3952,-1.3941,-1.396,-1.3969,-1.3933,-1.3928,-1.3895,-1.3917,-1.3997,-1.3875,-1.3874,-1.3899,-1.4066,-1.4096,-1.4112,-1.3969,-1.3972,-1.3973,-1.4068,0,-1.4084,-1.412,-1.4077,-1.4123,-1.4134,-1.4072,-1.4092,-1.4078,-1.4054,-1.406,-1.4034,-1.4042,-1.3993,-1.399,-1.4009,-1.3983,-1.403,-1.3975,-1.3987,-1.3988,-1.3994,-1.4127,-1.4159,-1.425,-1.4079,-1.4081,-1.4083,0,-1.4201,-1.4194,-1.4241,-1.421,-1.4213,-1.4232,-1.4224,-1.4231,-1.4213,-1.4194,-1.4189,-1.4149,-1.417,-1.4116,-1.4145,-1.4109,-1.4111,-1.4099,-1.4101,-1.4101,-1.4041,-1.4131,-1.4277,-1.4291,-1.4101,-1.4099,-1.4098,0,-1.4313,-1.4316,-1.4345,-1.4339,-1.4303,-1.4318,-1.4304,-1.4283,-1.4283,-1.4277,-1.4277,-1.4274,-1.4273,-1.4272,-1.4232,-1.4196,-1.4266,-1.4208,-1.4252,-1.4253,-1.427,-1.4269,-1.4419,-1.4271,-1.427,-1.427,-1.427,0,-1.4424,-1.4456,-1.4395,-1.4412,-1.4446,-1.4395,-1.443,-1.4409,-1.4392,-1.4405,-1.4351,-1.4365,-1.4311,-1.4319,-1.4289,-1.4317,-1.4317,-1.4303,-1.4295,-1.4308,-1.431,-1.4309,-1.4302,-1.4274,-1.4273,-1.4272,-1.4272,0,-1.4556,-1.4516,-1.4543,-1.4506,-1.4498,-1.4524,-1.4493,-1.4508,-1.448,-1.4498,-1.4499,-1.4457,-1.4463,-1.4423,-1.4423,-1.4402,-1.4446,-1.4427,-1.4452,-1.4446,-1.4492,-1.4489,-1.4647,-1.4665,-1.4505,-1.4507,-1.4508,0,-1.463,-1.4652,-1.4618,-1.4622,-1.461,-1.4618,-1.4618,-1.457,-1.4572,-1.4553,-1.4571,-1.4573,-1.4572,-1.4586,-1.4556,-1.4555,-1.4536,-1.4591,-1.4535,-1.4548,-1.4537,-1.4536,-1.4539,-1.4603,-1.4605,-1.4607,-1.4608,0,-1.4765,-1.4744,-1.4746,-1.4741,-1.4742,-1.4736,-1.4726,-1.4733,-1.4681,-1.4686,-1.4692,-1.4691,-1.469,-1.4694,-1.4687,-1.4673,-1.4632,-1.4626,-1.4636,-1.465,-1.4664,-1.4657,-1.4485,-1.4622,-1.4621,-1.462,-1.4619,-1.4619,-1.487,-1.4887,-1.4865,-1.4869,-1.4856,-1.4849,-1.4861,-1.4835,-1.4839,-1.4834,-1.4805,-1.4816,-1.4798,-1.4785,-1.4775,-1.4783,-1.4757,-1.4772,-1.4775,-1.478,-1.4788,-1.4662,-1.4782,-1.4781,-1.4781,-1.4781,-1.478,0,-1.5003,-1.4986,-1.499,-1.4977,-1.4981,-1.4941,-1.4928,-1.4934,-1.4944,-1.493,-1.493,-1.4937,-1.4939,-1.4909,-1.4908,-1.4921,-1.4902,-1.4922,-1.4921,-1.4919,-1.4812,-1.4803,-1.4937,-1.4937,-1.4937,-1.4937,-1.4937,-1.4937,-1.5073,-1.51,-1.5076,-1.5097,-1.5079,-1.5089,-1.5086,-1.5078,-1.5067,-1.5077,-1.5078,-1.5058,-1.5038,-1.5035,-1.5036,-1.5027,-1.5029,-1.5056,-1.5041,-1.4941,-1.4926,-1.4912,-1.4903,-1.5056,-1.5057,-1.5147,-1.5147,-1.5148]},{"header":{"parameterUnit":"m.s-1","parameterCategory":1,"la1":30.2991,"la2":30.254,"lo1":-89.0895,"lo2":-89.0444,"dy":0.0017,"dx":0.0017,"nx":28,"ny":28,"refTime":"2025-03-24T03:00:00:Z","depth":0,"parameterNumber":3,"parameterNumberName":"V-component_of_WINDS"},"data":[0,0,0,0,0,0,0,0,0,0,0,0,0,0,0,0,0,0,0,0,0,0,0,0,0,0,0,0,0,0,0,0,0,0,0,0,0,0,0,0,0,0,0,0,0,0,0,0,0,0,0,0,0,0,0,0,0,0,-2.613,-2.6132,0,-2.6254,-2.6256,-2.6257,-2.6255,-2.6253,-2.6251,-2.625,-2.6378,-2.6383,-2.6388,0,0,0,0,0,0,0,0,0,0,0,0,0,-2.5892,-2.5897,-2.613,-2.6132,-2.6133,-2.6254,-2.6256,-2.6257,-2.6255,-2.6253,-2.6251,-2.6249,-2.6377,-2.6382,-2.6388,0,0,0,0,0,0,0,0,0,0,0,0,0,-2.6004,-2.5898,-2.613,-2.6146,-2.6149,-2.6254,-2.6256,-2.6258,-2.6255,-2.6253,-2.625,-2.6248,-2.6375,-2.6382,-2.6389,-2.6486,0,0,-2.6412,-2.6415,0,0,0,0,0,0,0,0,-2.5998,-2.6013,-2.6143,-2.6146,-2.6149,-2.6236,-2.6219,-2.6334,-2.6256,-2.6215,-2.625,-2.6247,-2.6333,-2.6344,-2.6373,-2.6492,-2.6497,-2.6413,-2.6417,-2.642,-2.6423,0,0,0,0,0,0,0,-2.599,-2.6007,-2.6179,-2.6144,-2.6148,-2.6148,-2.6161,-2.6241,-2.6287,-2.6218,-2.6219,-2.6233,-2.6334,-2.6366,-2.6376,-2.6499,-2.6413,-2.6419,-2.6424,-2.6427,-2.6704,-2.6706,0,0,0,0,0,0,-2.5978,-2.6001,-2.6175,-2.6183,-2.6065,-2.6154,-2.6169,-2.6211,-2.6286,-2.6295,-2.6235,-2.6233,-2.6354,-2.6367,-2.638,-2.6498,-2.642,-2.6427,-2.6432,-2.6701,-2.6704,-2.6707,0,0,0,0,0,0,-2.5973,-2.5994,-2.617,-2.6092,-2.6114,-2.6161,-2.6208,-2.6215,-2.6246,-2.6299,-2.6307,-2.6259,-2.6353,-2.637,-2.6459,-2.6503,-2.6431,-2.6438,-2.6697,-2.6702,-2.6706,-2.6735,0,0,0,0,0,0,-2.5966,-2.5992,-2.6029,-2.6093,-2.6119,-2.6247,-2.6211,-2.6219,-2.6258,-2.6256,-2.6323,-2.6331,-2.6352,-2.6448,-2.6467,-2.6512,-2.6443,-2.6694,-2.6699,-2.6705,-2.673,-2.6739,-2.6747,0,0,0,0,0,-2.5958,-2.6033,-2.6031,-2.6052,-2.6166,-2.625,-2.6265,-2.6286,-2.6262,-2.63,-2.6334,-2.6329,-2.6495,-2.6458,-2.6478,-2.6526,-2.6691,-2.6698,-2.6704,-2.6726,-2.6738,-2.6747,0,0,0,0,0,0,-2.5973,-2.6041,-2.604,-2.6138,-2.6188,-2.6249,-2.6297,-2.6298,-2.6356,-2.6352,-2.6377,-2.6392,-2.6482,-2.6513,-2.647,-2.6623,-2.659,-2.6601,-2.66,-2.6611,-2.6619,-2.661,-2.645,0,0,0,0,0,-2.5988,-2.605,-2.6106,-2.6187,-2.6212,-2.625,-2.6288,-2.63,-2.6353,-2.6375,-2.6415,-2.6467,-2.6531,-2.6573,-2.6634,-2.6735,-2.6749,-2.6778,-2.6786,-2.6793,-2.6802,-2.6857,-2.6871,-2.6729,-2.6729,-2.6728,0,0,-2.6019,-2.6064,-2.6101,-2.6191,-2.6231,-2.6295,-2.6268,-2.6337,-2.6385,-2.6385,-2.6472,-2.6504,-2.6564,-2.6659,-2.6703,-2.6688,-2.6845,-2.6801,-2.6806,-2.6812,-2.6865,-2.6879,-2.6891,-2.6733,-2.6732,-2.6732,0,0,-2.6108,-2.6148,-2.6219,-2.626,-2.6322,-2.6347,-2.6364,-2.6425,-2.6446,-2.6534,-2.6535,-2.6593,-2.6702,-2.6745,-2.678,-2.6885,-2.6884,-2.6905,-2.695,-2.7004,-2.7015,-2.7025,-2.7062,-2.7075,-2.6914,-2.6914,-2.6914,0,-2.6139,-2.6235,-2.6256,-2.6325,-2.6365,-2.6367,-2.644,-2.6479,-2.6557,-2.6585,-2.6566,-2.6704,-2.6744,-2.6849,-2.6875,-2.6904,-2.6924,-2.6897,-2.7011,-2.7022,-2.7031,-2.7067,-2.7081,-2.6916,-2.6916,-2.6916,-2.6915,0,-2.627,-2.6337,-2.6387,-2.6462,-2.6507,-2.6578,-2.661,-2.6653,-2.6662,-2.6688,-2.6778,-2.6826,-2.6898,-2.6924,-2.6933,-2.7031,-2.7019,-2.7006,-2.6973,-2.7047,-2.7081,-2.7095,-2.6919,-2.6918,-2.6918,-2.6917,0,0,-2.6372,-2.6458,-2.6476,-2.651,-2.6578,-2.663,-2.6701,-2.677,-2.6806,-2.6861,-2.6921,-2.7013,-2.7001,-2.7042,-2.7056,-2.7103,-2.7183,-2.7084,-2.7086,-2.7101,-2.7293,-2.7303,-2.7318,-2.7182,-2.7185,-2.7187,-2.7288,0,-2.6468,-2.6593,-2.6614,-2.6724,-2.6786,-2.6789,-2.6851,-2.69,-2.6927,-2.6984,-2.7014,-2.7079,-2.7058,-2.7083,-2.7129,-2.7163,-2.7222,-2.7156,-2.7238,-2.7241,-2.7223,-2.7336,-2.7346,-2.744,-2.7302,-2.7304,-2.7306,0,-2.6597,-2.6654,-2.677,-2.6829,-2.6856,-2.6911,-2.6976,-2.703,-2.7085,-2.7101,-2.7147,-2.7155,-2.7229,-2.7193,-2.7295,-2.725,-2.7285,-2.7307,-2.7311,-2.7319,-2.7278,-2.7348,-2.747,-2.7484,-2.7327,-2.7325,-2.7324,0,-2.666,-2.6765,-2.6848,-2.6877,-2.6948,-2.6987,-2.7018,-2.7071,-2.7111,-2.7168,-2.7195,-2.726,-2.7296,-2.7346,-2.7372,-2.7343,-2.7473,-2.7439,-2.7489,-2.7488,-2.7516,-2.7514,-2.7645,-2.7538,-2.7538,-2.7538,-2.7538,0,-2.6765,-2.6835,-2.6877,-2.6928,-2.7008,-2.7031,-2.7109,-2.714,-2.7187,-2.7244,-2.7251,-2.7305,-2.7336,-2.7394,-2.7415,-2.7496,-2.7513,-2.7528,-2.7533,-2.7528,-2.7526,-2.7551,-2.7545,-2.7542,-2.7541,-2.754,-2.7539,0,-2.6848,-2.6879,-2.697,-2.7029,-2.7046,-2.7102,-2.7153,-2.7203,-2.723,-2.7302,-2.7321,-2.7363,-2.7432,-2.7463,-2.7548,-2.7562,-2.7655,-2.7655,-2.7636,-2.7638,-2.7686,-2.7681,-2.7839,-2.786,-2.7739,-2.774,-2.7741,0,-2.6913,-2.6968,-2.7033,-2.7072,-2.7104,-2.7166,-2.7207,-2.7233,-2.7275,-2.7342,-2.7384,-2.7453,-2.7509,-2.762,-2.7658,-2.7723,-2.7725,-2.7776,-2.7735,-2.7728,-2.7726,-2.7722,-2.7728,-2.7783,-2.7784,-2.7785,-2.7786,0,-2.7025,-2.7038,-2.7096,-2.716,-2.7209,-2.7261,-2.7311,-2.7343,-2.7376,-2.7424,-2.7494,-2.7538,-2.7625,-2.7693,-2.7761,-2.7794,-2.7796,-2.7799,-2.7814,-2.7809,-2.7796,-2.7803,-2.7656,-2.7795,-2.7794,-2.7793,-2.7793,-2.7793,-2.7101,-2.715,-2.7203,-2.7268,-2.7309,-2.7356,-2.7406,-2.7439,-2.7498,-2.757,-2.7582,-2.7657,-2.771,-2.7801,-2.7837,-2.7896,-2.7884,-2.7906,-2.7911,-2.7916,-2.7919,-2.7786,-2.7908,-2.7908,-2.7908,-2.7908,-2.7908,0,-2.7214,-2.7248,-2.7308,-2.7378,-2.7429,-2.7426,-2.7482,-2.7525,-2.7591,-2.7641,-2.7696,-2.7777,-2.7844,-2.7887,-2.7955,-2.7994,-2.7996,-2.8011,-2.8008,-2.8016,-2.7926,-2.7906,-2.8007,-2.8007,-2.8007,-2.8007,-2.8007,-2.8007,-2.7278,-2.736,-2.7378,-2.748,-2.7515,-2.7588,-2.762,-2.7664,-2.7704,-2.7793,-2.7848,-2.7876,-2.7924,-2.7995,-2.8055,-2.8067,-2.8091,-2.8106,-2.8117,-2.8032,-2.8022,-2.8012,-2.7993,-2.8111,-2.8111,-2.8201,-2.8202,-2.8203]}]]